{"data":{"norad_id":58394,"epoch":"2026-05-25T00:23:58.445088Z","epoch_age_seconds":66914,"freshness":"FRESH","line1":"1 58394U 23178W   26145.01664867 -.00003080  00000+0 -80158-4 0  9994","line2":"2 58394  53.1589   5.9228 0001444 127.8754 232.2379 15.34357739141567","mean_motion":15.34357739,"eccentricity":0.0001444,"inclination_deg":53.1589,"raan_deg":5.9228,"arg_perigee_deg":127.8754,"mean_anomaly_deg":232.2379,"bstar":-8.0158e-5,"rev_number":14156,"period_min":93.850342941438,"perigee_km":461.84101621926,"apogee_km":463.81668715723,"semimajor_km":6840.9658516882,"source":"CELESTRAK","updated_at":"2026-05-25T13:38:18.615937Z"}}